FW6209 Weather Reports


Display with metric or nautical units.
time (UTC)temp
F
wind
direction
speed
MPH
gust
MPH
rain 1hr
in
rain 24hr
in
rain mn
in
humidity
%
barometer
mb
20260506051021 53 162 0.0 0.0 0.00 0.06 0.06 87 1016.2
20260506050515 53 192 0.0 0.0 0.00 0.06 0.06 86 1016.2
20260506045004 53 192 0.0 0.0 0.00 0.06 0.06 85 1016.0
20260506044503 53 192 0.0 0.0 0.00 0.06 0.06 85 1015.9
20260506044005 53 182 0.0 0.0 0.00 0.06 0.06 85 1015.9
20260506043501 53 182 0.0 0.0 0.00 0.06 0.06 84 1015.8
20260506043001 53 182 0.0 0.0 0.00 0.06 0.06 84 1015.6
20260506042501 53 210 0.0 0.0 0.00 0.06 0.06 84 1015.6
20260506042000 53 210 0.0 0.0 0.00 0.06 0.06 84 1015.6
20260506041459 53 210 0.0 0.0 0.00 0.06 0.06 83 1015.6
20260506040958 53 227 0.0 0.0 0.00 0.06 0.06 83 1015.6
20260506040455 53 227 0.0 0.0 0.00 0.06 0.06 82 1015.6
20260506035953 53 232 0.0 0.0 0.00 0.06 0.06 81 1015.6
20260506035453 54 215 0.0 0.0 0.00 0.06 0.06 80 1015.3
20260506034947 54 215 0.0 0.0 0.00 0.06 0.06 80 1015.3
20260506034449 54 215 0.0 0.0 0.00 0.06 0.06 79 1015.3
20260506033950 54 215 0.0 0.0 0.00 0.06 0.06 79 1015.1
20260506033704 54 218 0.0 0.0 0.00 0.06 0.06 78 1015.0
20260506032945 54 246 0.0 3.0 0.00 0.06 0.06 78 1014.9
20260506032441 54 233 0.0 3.0 0.00 0.06 0.06 77 1014.8
20260506031939 54 233 0.0 3.0 0.00 0.06 0.06 77 1014.7
20260506031438 54 235 0.0 3.0 0.00 0.06 0.06 77 1014.8
20260506030933 55 229 0.0 2.0 0.00 0.06 0.06 77 1014.7
20260506030426 55 248 0.0 4.0 0.00 0.06 0.06 76 1014.6
20260506025920 55 219 0.0 4.0 0.00 0.06 0.06 76 1014.6
20260506025634 55 241 0.0 3.0 0.00 0.06 0.06 76 1014.6
20260506024909 55 236 0.0 6.0 0.00 0.06 0.06 74 1014.5
20260506024624 55 237 1.0 6.0 0.00 0.06 0.06 74 1014.4
20260506023856 55 234 1.0 9.0 0.00 0.06 0.06 73 1014.3
20260506023352 55 217 1.0 9.0 0.00 0.06 0.06 72 1014.3
20260506022844 56 230 1.0 9.0 0.00 0.06 0.06 71 1014.3
20260506022345 56 222 1.0 9.0 0.00 0.06 0.06 70 1014.1
20260506022100 56 223 1.0 6.0 0.00 0.06 0.06 70 1014.1
20260506021340 57 202 1.0 10.0 0.00 0.06 0.06 69 1013.9
20260506020842 57 244 1.0 10.0 0.00 0.06 0.06 69 1013.7
20260506020340 57 221 3.0 10.0 0.00 0.06 0.06 69 1013.8
20260506015839 57 221 3.0 10.0 0.00 0.06 0.06 67 1013.8
20260506015341 58 229 2.0 11.0 0.00 0.06 0.06 66 1013.9
20260506014840 58 227 2.0 11.0 0.00 0.06 0.06 65 1013.8
20260506014341 58 227 3.0 11.0 0.00 0.06 0.06 66 1013.8
20260506013839 58 211 5.0 12.0 0.00 0.06 0.06 65 1013.4
20260506013337 59 181 4.0 12.0 0.00 0.06 0.06 65 1013.4
20260506012839 59 236 3.0 11.0 0.00 0.06 0.06 64 1013.3
20260506012337 59 244 4.0 12.0 0.00 0.06 0.06 64 1013.3
20260506011839 59 197 4.0 12.0 0.00 0.06 0.06 63 1013.3
20260506011338 59 254 4.0 14.0 0.00 0.06 0.06 63 1013.3
20260506010835 58 262 4.0 14.0 0.00 0.06 0.06 64 1013.4
20260506010337 59 282 4.0 14.0 0.00 0.06 0.06 64 1013.3
20260506005836 59 217 4.0 15.0 0.00 0.06 0.06 66 1013.2
20260506005330 59 281 5.0 15.0 0.00 0.06 0.06 66 1013.2
20260506004824 59 231 6.0 15.0 0.00 0.06 0.06 66 1013.1
20260506004317 59 200 7.0 15.0 0.00 0.06 0.06 64 1013.0
20260506003812 60 202 7.0 15.0 0.00 0.06 0.06 63 1012.9
20260506003306 60 236 6.0 15.0 0.00 0.06 0.06 63 1013.1
20260506002800 60 187 6.0 15.0 0.00 0.06 0.06 63 1013.1
20260506002254 60 252 7.0 15.0 0.00 0.06 0.06 62 1013.2
20260506001748 59 251 7.0 16.0 0.00 0.06 0.06 63 1013.0
20260506001508 59 292 7.0 16.0 0.00 0.06 0.06 63 1013.0
20260506000736 59 261 7.0 16.0 0.00 0.06 0.06 64 1013.0
20260506000230 60 240 7.0 16.0 0.00 0.06 0.06 62 1013.2
20260505235723 60 245 6.0 14.0 0.00 0.06 0.06 63 1013.0
20260505235218 60 235 4.0 14.0 0.00 0.06 0.06 62 1013.0
20260505234711 61 244 5.0 15.0 0.00 0.06 0.06 63 1012.9
20260505234205 61 201 5.0 15.0 0.00 0.06 0.06 61 1012.9
20260505233701 61 180 5.0 15.0 0.00 0.06 0.06 61 1012.9
20260505233153 61 236 5.0 17.0 0.00 0.06 0.06 63 1013.0
20260505232648 61 248 4.0 17.0 0.00 0.06 0.06 61 1012.9
20260505232142 61 215 5.0 17.0 0.00 0.06 0.06 62 1012.9
20260505231636 62 200 6.0 17.0 0.00 0.06 0.06 61 1012.9
20260505231130 62 194 4.0 17.0 0.00 0.06 0.06 58 1012.9
20260505230624 62 200 4.0 17.0 0.00 0.06 0.06 60 1013.0
20260505230117 62 245 7.0 18.0 0.00 0.06 0.06 61 1012.9
20260505225612 62 246 5.0 18.0 0.00 0.06 0.06 59 1013.0
20260505225107 62 228 5.0 18.0 0.00 0.06 0.06 56 1013.0
20260505224559 63 132 6.0 18.0 0.00 0.06 0.06 55 1013.1
20260505224317 64 243 4.0 16.0 0.00 0.06 0.06 53 1013.2
20260505223547 64 197 4.0 16.0 0.00 0.06 0.06 53 1013.2
20260505223534 63 224 5.0 16.0 0.00 0.06 0.06 53 1013.3
20260505222536 63 253 4.0 16.0 0.00 0.06 0.06 55 1013.2
20260505222029 62 174 4.0 15.0 0.00 0.06 0.06 55 1013.3
20260505221524 61 248 6.0 14.0 0.00 0.06 0.06 55 1013.2
20260505221018 61 220 7.0 14.0 0.00 0.06 0.06 56 1013.3
20260505220512 61 231 5.0 14.0 0.00 0.06 0.06 56 1013.1
20260505220226 61 223 4.0 13.0 0.00 0.06 0.06 57 1013.3
20260505215500 61 202 4.0 15.0 0.00 0.06 0.06 56 1013.2
20260505214954 61 241 3.0 15.0 0.00 0.06 0.06 55 1013.3
20260505214937 62 212 3.0 16.0 0.00 0.06 0.06 55 1013.4
20260505213941 63 257 4.0 16.0 0.00 0.06 0.06 54 1013.6
20260505213656 63 219 5.0 14.0 0.00 0.06 0.06 58 1013.7
20260505212929 62 185 5.0 12.0 0.00 0.06 0.06 58 1013.8
20260505212423 63 232 5.0 12.0 0.00 0.06 0.06 57 1013.9
20260505211917 63 233 6.0 13.0 0.00 0.06 0.06 59 1013.9
20260505211411 62 209 6.0 13.0 0.00 0.06 0.06 62 1013.9
20260505210906 63 209 4.0 17.0 0.00 0.06 0.06 57 1013.9
20260505210401 63 253 3.0 17.0 0.00 0.06 0.06 60 1013.9
20260505205855 62 243 6.0 17.0 0.00 0.06 0.06 62 1014.0
20260505205347 62 192 7.0 19.0 0.00 0.06 0.06 59 1014.0
20260505204849 62 244 5.0 19.0 0.00 0.06 0.06 56 1013.9
20260505204343 62 246 6.0 19.0 0.00 0.06 0.06 59 1014.0
20260505203843 62 230 5.0 19.0 0.00 0.06 0.06 56 1014.0
20260505203344 62 238 4.0 13.0 0.00 0.06 0.06 60 1014.0
20260505202841 61 281 5.0 12.0 0.00 0.06 0.06 58 1014.0
20260505202343 61 258 5.0 13.0 0.00 0.06 0.06 55 1014.0
20260505201842 60 247 5.0 13.0 0.00 0.06 0.06 59 1014.1
20260505201343 60 232 5.0 13.0 0.00 0.06 0.06 63 1014.0
20260505201106 59 226 5.0 13.0 0.00 0.06 0.06 62 1014.2
20260505200341 59 238 4.0 12.0 0.00 0.06 0.06 61 1014.2
20260505200110 59 248 4.0 14.0 0.00 0.06 0.06 61 1014.3
20260505195343 59 248 5.0 14.0 0.00 0.06 0.06 63 1014.3
20260505195101 58 259 6.0 14.0 0.00 0.06 0.06 65 1014.3
20260505194342 59 219 6.0 14.0 0.00 0.06 0.06 65 1014.3
20260505193843 59 240 5.0 12.0 0.00 0.06 0.06 65 1014.3
20260505193341 59 217 5.0 12.0 0.00 0.06 0.06 64 1014.4
20260505192845 59 259 3.0 12.0 0.00 0.06 0.06 63 1014.3
20260505192340 59 259 3.0 11.0 0.00 0.06 0.06 63 1014.3
20260505191835 59 180 3.0 12.0 0.00 0.06 0.06 65 1014.4
20260505191325 59 231 3.0 12.0 0.00 0.06 0.06 64 1014.4
20260505191042 60 285 5.0 12.0 0.00 0.06 0.06 64 1014.4
20260505190314 59 257 5.0 12.0 0.00 0.06 0.06 67 1014.5
20260505185808 60 219 3.0 11.0 0.00 0.06 0.06 63 1014.5
20260505185305 60 235 3.0 11.0 0.00 0.06 0.06 64 1014.5
20260505184755 60 174 3.0 11.0 0.00 0.06 0.06 65 1014.4
20260505184250 60 267 2.0 9.0 0.00 0.06 0.06 63 1014.4
20260505183745 60 86 2.0 8.0 0.00 0.06 0.06 66 1014.4
20260505183238 59 199 2.0 10.0 0.00 0.06 0.06 68 1014.5
20260505182732 58 222 4.0 11.0 0.00 0.06 0.06 73 1014.5
20260505182225 57 246 4.0 11.0 0.00 0.06 0.06 72 1014.6
20260505181720 57 239 3.0 9.0 0.00 0.06 0.06 73 1014.5
20260505181213 57 228 3.0 11.0 0.00 0.06 0.06 76 1014.5
20260505180708 57 277 2.0 11.0 0.00 0.06 0.06 79 1014.4
20260505180421 56 256 1.0 7.0 0.00 0.06 0.06 79 1014.5
20260505175657 56 273 1.0 7.0 0.00 0.06 0.06 83 1014.5
20260505175150 56 290 0.0 5.0 0.00 0.06 0.06 82 1014.5
20260505174643 55 238 1.0 6.0 0.00 0.06 0.06 86 1014.5
20260505174137 55 229 1.0 6.0 0.00 0.06 0.06 83 1014.4
20260505173632 55 281 0.0 3.0 0.00 0.06 0.06 84 1014.3
20260505173125 55 257 0.0 5.0 0.00 0.06 0.06 83 1014.2
20260505172847 55 268 0.0 5.0 0.00 0.06 0.06 83 1014.1
20260505172114 55 240 1.0 6.0 0.00 0.06 0.06 83 1014.0
20260505171608 55 256 1.0 6.0 0.00 0.06 0.06 82 1013.9
20260505171101 55 235 0.0 4.0 0.00 0.06 0.06 82 1013.9
20260505170556 55 295 0.0 4.0 0.00 0.06 0.06 84 1013.8
20260505170051 55 257 1.0 4.0 0.00 0.06 0.06 84 1013.8
20260505165806 55 261 1.0 8.0 0.00 0.06 0.06 83 1014.0
20260505165038 55 244 1.0 8.0 0.00 0.06 0.06 85 1013.9
20260505164533 55 219 2.0 8.0 0.00 0.06 0.06 85 1013.9
20260505164025 55 242 3.0 8.0 0.00 0.06 0.06 84 1013.8
20260505163520 55 270 1.0 7.0 0.00 0.06 0.06 84 1013.9
20260505163014 55 250 1.0 5.0 0.00 0.06 0.06 86 1013.8
20260505162508 55 143 1.0 4.0 0.00 0.06 0.06 86 1013.7
20260505162002 55 238 0.0 2.0 0.00 0.06 0.06 86 1013.8
20260505161456 54 267 1.0 9.0 0.00 0.06 0.06 87 1013.6
20260505160949 54 307 1.0 9.0 0.00 0.06 0.06 86 1013.4
20260505160443 54 236 2.0 9.0 0.00 0.06 0.06 88 1013.3
20260505152902 53 269 1.0 9.0 0.00 0.06 0.06 91 1013.3
20260505152118 53 252 1.0 9.0 0.00 0.06 0.06 92 1013.1
20260505151344 53 229 1.0 7.0 0.00 0.06 0.06 93 1013.1
20260505150838 53 273 2.0 7.0 0.00 0.06 0.06 93 1013.0
20260505150332 53 273 1.0 5.0 0.00 0.06 0.06 94 1012.9
20260505140220 52 229 0.0 5.0 0.00 0.06 0.06 96 1012.6
20260505130108 52 256 0.0 7.0 0.00 0.06 0.06 95 1012.0
20260505124550 52 236 2.0 8.0 0.00 0.06 0.06 95 1012.1
20260505124310 52 261 1.0 8.0 0.00 0.06 0.06 95 1012.0
20260505123537 52 271 1.0 8.0 0.00 0.06 0.06 95 1011.9
20260505123032 52 251 1.0 8.0 0.00 0.06 0.06 95 1011.9
20260505122527 52 237 0.0 4.0 0.00 0.06 0.06 96 1011.9
20260505122019 51 274 0.0 1.0 0.00 0.06 0.06 95 1011.9
20260505121513 51 235 0.0 0.0 0.01 0.06 0.06 95 1011.9
20260505121009 51 242 0.0 0.0 0.01 0.06 0.06 95 1011.9
20260505120722 51 242 0.0 0.0 0.02 0.06 0.06 95 1011.9
20260505120214 51 242 0.0 0.0 0.03 0.06 0.06 95 1011.9
20260505115449 51 242 0.0 2.0 0.03 0.06 0.06 95 1011.9
20260505114943 51 242 0.0 2.0 0.03 0.06 0.06 95 1011.9
20260505114442 51 242 0.0 2.0 0.03 0.06 0.06 95 1011.9
20260505113939 51 234 0.0 2.0 0.03 0.06 0.06 95 1012.0
20260505113701 51 229 0.0 1.0 0.03 0.06 0.06 95 1012.0
20260505112935 51 262 0.0 1.0 0.03 0.06 0.06 95 1012.0
20260505112434 51 285 0.0 0.0 0.03 0.06 0.06 95 1012.0
20260505111931 52 315 0.0 0.0 0.03 0.05 0.05 95 1012.0
20260505111428 52 330 0.0 2.0 0.03 0.05 0.05 95 1011.9
20260505110929 52 282 0.0 2.0 0.03 0.05 0.05 95 1012.1
20260505110432 52 287 0.0 3.0 0.03 0.04 0.05 95 1012.1
20260505110149 52 247 0.0 3.0 0.02 0.03 0.03 95 1012.2
20260505101922 52 261 0.0 0.0 0.02 0.02 0.02 94 1012.0
20260505101421 52 249 0.0 0.0 0.02 0.02 0.02 94 1012.0
20260505100924 52 223 0.0 0.0 0.01 0.01 0.01 94 1012.1
20260505100418 52 246 0.0 0.0 0.01 0.01 0.01 94 1012.0
20260505095912 52 246 0.0 0.0 0.01 0.01 0.01 94 1012.0
20260505095406 52 246 0.0 0.0 0.01 0.01 0.01 94 1012.1
20260505095122 52 246 0.0 0.0 0.00 0.00 0.00 94 1012.2
20260505094354 52 266 0.0 0.0 0.00 0.00 0.00 94 1012.1
20260505093847 52 282 0.0 0.0 0.00 0.00 0.00 94 1012.1
20260505093342 52 302 0.0 0.0 0.00 0.00 0.00 94 1012.2
20260505092836 52 302 0.0 0.0 0.00 0.00 0.00 94 1012.3
20260505092330 52 308 0.0 0.0 0.00 0.00 0.00 93 1012.4
20260505091824 52 315 0.0 0.0 0.00 0.00 0.00 93 1012.3
20260505091318 52 288 0.0 0.0 0.00 0.00 0.00 93 1012.4
20260505090812 52 288 0.0 0.0 0.00 0.00 0.00 93 1012.5
20260505090306 52 288 0.0 0.0 0.00 0.00 0.00 93 1012.6
20260505085801 52 280 0.0 0.0 0.00 0.00 0.00 93 1012.7
20260505085517 52 280 0.0 0.0 0.00 0.00 0.00 93 1012.8
20260505084748 52 286 0.0 0.0 0.00 0.00 0.00 93 1012.7
20260505084241 52 286 0.0 0.0 0.00 0.00 0.00 94 1012.7
20260505083736 52 286 0.0 0.0 0.00 0.00 0.00 94 1012.8
20260505083230 53 286 0.0 0.0 0.00 0.00 0.00 94 1012.9
20260505082724 53 286 0.0 0.0 0.00 0.00 0.00 94 1012.9
20260505082449 53 286 0.0 0.0 0.00 0.00 0.00 94 1013.0
20260505081712 53 286 0.0 0.0 0.00 0.00 0.00 94 1013.0
20260505081206 53 286 0.0 0.0 0.00 0.00 0.00 93 1013.1
20260505080700 53 286 0.0 0.0 0.00 0.00 0.00 94 1013.1
20260505080154 53 355 0.0 0.0 0.00 0.00 0.00 94 1013.1
20260505075916 53 302 0.0 2.0 0.00 0.00 0.00 94 1013.3
20260505075144 53 297 0.0 2.0 0.00 0.00 0.00 94 1013.2
20260505074636 53 0 0.0 0.0 0.00 0.00 0.00 94 1013.1
20260505074352 53 0 0.0 0.0 0.00 0.00 0.00 94 1013.2
20260505073623 53 238 0.0 0.0 0.00 0.00 0.00 94 1013.3
20260505073339 53 238 0.0 0.0 0.00 0.00 0.00 93 1013.3
20260505072843 53 238 0.0 0.0 0.00 0.00 0.00 93 1013.4
20260505072106 53 238 0.0 0.0 0.00 0.00 0.00 93 1013.4
20260505071558 53 238 0.0 0.0 0.00 0.00 0.00 93 1013.4
20260505071052 53 238 0.0 0.0 0.00 0.00 0.00 93 1013.4
20260505070553 53 238 0.0 0.0 0.00 0.00 0.00 93 1013.4
20260505070049 53 238 0.0 0.0 0.00 0.00 0.00 92 1013.4
20260505065546 53 238 0.0 0.0 0.00 0.00 0.01 92 1013.4
20260505065307 53 238 0.0 0.0 0.00 0.00 0.01 92 1013.4
20260505064547 53 238 0.0 1.0 0.00 0.00 0.01 92 1013.7
20260505064045 53 238 0.0 1.0 0.00 0.00 0.01 92 1013.7
20260505063546 53 238 0.0 1.0 0.00 0.00 0.01 92 1013.6
20260505063047 53 239 0.0 1.0 0.00 0.00 0.01 92 1013.7
20260505062547 53 248 0.0 0.0 0.00 0.00 0.01 92 1013.7
20260505062048 53 248 0.0 4.0 0.00 0.00 0.01 92 1013.7
20260505061607 54 247 0.0 4.0 0.00 0.00 0.01 92 1013.7
20260505061042 54 255 0.0 4.0 0.00 0.00 0.01 92 1013.8
20260505060544 54 255 0.0 4.0 0.00 0.00 0.01 91 1013.8
20260505060301 54 227 0.0 3.0 0.00 0.00 0.01 91 1013.9
20260505060028 54 238 0.0 3.0 0.00 0.00 0.01 91 1013.9